Regional Weather Roundup
Issued by NWS

Home | Current Version | Previous Version | Graphics & Text | Print | Product List | Glossary On
Versions: 1 2 3 4 5 6 7 8 9 10 11 12 13 14 15 16 17 18 19 20 21 22 23 24 25 26 27 28 29 30 31 32 33 34 35 36 37 38 39 40 41 42 43 44 45 46 47 48 49 50
000
ASUS43 KOAX 310002
RWRNE

WEATHER ROUNDUP FOR NEBRASKA
NATIONAL WEATHER SERVICE OMAHA NE
600 PM CST FRI JAN 30 2015

NOTES: SATELLITE DATA IS BEING USED TO AUGMENT CLOUD COVER ABOVE
       12000 FEET.
       "FAIR" INDICATES FEW OR NO CLOUDS BELOW 12,000 FEET WITH NO
       SIGNIFICANT WEATHER AND/OR OBSTRUCTIONS TO VISIBILITY.

  * THESE STATIONS DO NOT REPORT WEATHER SUCH AS RAIN...SNOW OR FOG.

NEZ001>004-019>022-054>056-310100-
NEBRASKA PANHANDLE

CITY           SKY/WX    TMP DP  RH WIND       PRES   REMARKS
SCOTTSBLUFF    CLOUDY    39  31  72 E5        30.11R
6HR MIN TEMP:  37; 6HR MAX TEMP:  44;

ALLIANCE       CLOUDY    37  26  64 SE6       30.09S WCI  32
6HR MIN TEMP:  37; 6HR MAX TEMP:  49;

CHADRON        CLOUDY    41  25  53 N5        30.12R
6HR MIN TEMP:  41; 6HR MAX TEMP:  52;

SIDNEY         CLOUDY    40  28  62 N7        30.09S
6HR MIN TEMP:  40; 6HR MAX TEMP:  46;

$$

NEZ057>060-069>072-079>082-310100-
SOUTHWEST NEBRASKA

CITY           SKY/WX    TMP DP  RH WIND       PRES   REMARKS
NORTH PLATTE   CLOUDY    43  27  53 S8        30.14F
6HR MIN TEMP:  42; 6HR MAX TEMP:  49;

IMPERIAL       CLOUDY    44  29  55 S13       30.12S
6HR MIN TEMP:  44; 6HR MAX TEMP:  53;

MCCOOK         CLOUDY    42  34  73 S12       30.18F
6HR MIN TEMP:  42; 6HR MAX TEMP:  49; 6HR PCP: TRACE;

$$

NEZ005>010-023>029-035>040-094-310100-
NORTH CENTRAL NEBRASKA

CITY           SKY/WX    TMP DP  RH WIND       PRES   REMARKS
VALENTINE      PTCLDY    40  25  55 S7        30.11S
6HR MIN TEMP:  40; 6HR MAX TEMP:  53;

BROKEN BOW     CLOUDY    42  26  53 S10       30.18S
6HR MIN TEMP:  41; 6HR MAX TEMP:  48;

ORD            MOCLDY    39  24  55 S9        30.19R WCI  33
6HR MIN TEMP:  35; 6HR MAX TEMP:  46;

$$

NEZ041-046>049-061>064-073>077-083>087-310100-
SOUTH CENTRAL NEBRASKA

CITY           SKY/WX    TMP DP  RH WIND       PRES   REMARKS
GRAND ISLAND   CLOUDY    41  25  53 S13       30.25F
6HR MIN TEMP:  37; 6HR MAX TEMP:  45;

HASTINGS       CLOUDY    42  24  49 S12       30.25S
6HR MIN TEMP:  37; 6HR MAX TEMP:  45;

KEARNEY *      CLOUDY    41  25  52 S13       30.23S
$$

NEZ011>018-030>034-042>045-310100-
NORTHEAST NEBRASKA

CITY           SKY/WX    TMP DP  RH WIND       PRES   REMARKS
NORFOLK        PTCLDY    38  27  64 SE7       30.21F WCI  33
6HR MIN TEMP:  36; 6HR MAX TEMP:  44;

COLUMBUS *     MOCLDY    39  25  56 S9        30.26F WCI  33
TEKAMAH        MOCLDY    34  24  67 SE13      30.29F WCI  25
6HR MIN TEMP:  32; 6HR MAX TEMP:  41;

$$

NEZ050>053-065>068-078-088>093-310100-
SOUTHEAST NEBRASKA

CITY           SKY/WX    TMP DP  RH WIND       PRES   REMARKS
LINCOLN        MOCLDY    34  24  67 S9        30.31F WCI  27
6HR MIN TEMP:  34; 6HR MAX TEMP:  42;

OMAHA EPPLEY   CLOUDY    34  24  67 S13       30.32F WCI  25
6HR MIN TEMP:  29; 6HR MAX TEMP:  37;

FALLS CITY     CLOUDY    34  21  59 SE7       30.35F WCI  28
6HR MIN TEMP:  30; 6HR MAX TEMP:  40;

$$

NEZ044-045-051>053-067-310100-
OMAHA AREA

CITY           SKY/WX    TMP DP  RH WIND       PRES   REMARKS
OMAHA EPPLEY   CLOUDY    34  24  67 S13       30.32F WCI  25
6HR MIN TEMP:  29; 6HR MAX TEMP:  37;

OFFUTT AFB     PTCLDY    31  23  73 SE8       30.32F WCI  24
$$



USA.gov is the U.S. government's official web portal to all federal, state and local government web resources and services.